Weather History for KMTW - September, 2013

Change the Weather History Date:

Monday, September 9, 2013

  Actual Average Record
Temperature  
Mean Temperature 72 °F -  
Max Temperature 84 °F 73 °F 91 °F (1983)
Min Temperature 66 °F 55 °F 44 °F (1956)
Cooling Degree Days 7    
Growing Degree Days 22 (Base 50)    
Moisture  
Dew Point 67 °F    
Average Humidity 88    
Maximum Humidity 97    
Minimum Humidity 67    
Precipitation  
Precipitation 0.63 in - - ()
Sea Level Pressure  
Sea Level Pressure 29.91 in    
Wind  
Wind Speed 8 mph (SSE)    
Max Wind Speed 17 mph    
Max Gust Speed 23 mph    
Visibility 6 miles    
Events Rain , Thunderstorm    
Averages and records for this station are not official NWS values.
T = Trace of Precipitation, MM = Missing Value Source: NWS Daily Summary

Daily Weather History Graph

Daily Weather History Graph

Search for Another Location

Airport or City:

Trip Planner

Search our weather history database for the weather conditions in past years. The results will help you decide how hot, cold, wet, or windy it might be!

Date:

Astronomy

Sep. 09, 2013 Rise Set
Actual Time 6:23 AM CDT 7:11 PM CDT
Civil Twilight 5:53 AM CDT 7:41 PM CDT
Nautical Twilight 5:19 AM CDT 8:15 PM CDT
Astronomical Twilight 4:42 AM CDT 8:51 PM CDT
Moon 10:55 AM CDT (9/9) 9:16 PM CDT (9/9)
Length of Visible Light 13h 47m
Length of Day
12h 48m
Waxing Crescent, 19% of the Moon is Illuminated
Sep 9
Waxing Crescent
Sep 12
First Quarter
Sep 19
Full
Sep 26
Last Quarter
Oct 4
New

Hourly Weather History & Observations

Time (CDT) Temp. Heat Index Dew Point Humidity Pressure Visibility Wind Dir Wind Speed Gust Speed Precip Events Conditions
12:56 AM 66.9 °F - 61.0 °F 81% 30.04 in 10.0 mi SSE 6.9 mph - N/A   Scattered Clouds
1:56 AM 66.9 °F - 62.1 °F 84% 30.02 in 10.0 mi SE 8.1 mph - 0.00 in Rain Light Rain
2:56 AM 66.9 °F - 62.1 °F 84% 30.01 in 10.0 mi SSE 6.9 mph - 0.00 in   Overcast
3:49 AM 68.0 °F - 64.4 °F 88% 29.95 in 10.0 mi SE 4.6 mph - N/A   Overcast
3:56 AM 68.0 °F - 64.0 °F 87% 30.00 in 7.0 mi SE 3.5 mph - 0.01 in Rain Rain
4:09 AM 66.2 °F - 64.4 °F 94% 29.95 in 2.0 mi SSE 3.5 mph - 0.22 in Rain Heavy Rain
4:18 AM 66.2 °F - 64.4 °F 94% 29.94 in 1.5 mi SE 5.8 mph - 0.58 in Rain , Thunderstorm Heavy Rain
4:25 AM 66.2 °F - 64.4 °F 94% 29.94 in 3.0 mi ESE 4.6 mph - 0.58 in Rain , Thunderstorm Light Rain
4:56 AM 66.9 °F - 66.0 °F 97% 29.99 in 5.0 mi Calm Calm - 0.61 in Rain Light Rain
5:37 AM 68.0 °F - 66.2 °F 94% 29.93 in 3.0 mi SE 6.9 mph - 0.01 in   Overcast
5:56 AM 68.0 °F - 66.0 °F 93% 29.99 in 3.0 mi SE 8.1 mph - 0.01 in   Overcast
6:32 AM 68.0 °F - 66.2 °F 94% 29.93 in 2.5 mi SSE 10.4 mph - N/A   Overcast
6:52 AM 68.0 °F - 66.2 °F 94% 29.93 in 3.0 mi SSE 10.4 mph - N/A   Overcast
6:56 AM 68.0 °F - 66.0 °F 93% 29.99 in 2.5 mi SSE 6.9 mph - N/A   Overcast
7:53 AM 68.0 °F - 66.2 °F 94% 29.93 in 4.0 mi SSE 9.2 mph - N/A   Overcast
7:56 AM 68.0 °F - 66.0 °F 93% 29.98 in 4.0 mi SSE 8.1 mph - N/A   Overcast
8:09 AM 69.8 °F - 66.2 °F 88% 29.93 in 5.0 mi SSE 10.4 mph - N/A   Overcast
8:56 AM 69.1 °F - 66.0 °F 90% 29.97 in 6.0 mi SSE 10.4 mph - N/A   Overcast
9:56 AM 69.1 °F - 66.0 °F 90% 29.98 in 9.0 mi SSE 11.5 mph - N/A   Overcast
10:56 AM 70.0 °F - 66.0 °F 87% 29.96 in 9.0 mi SSE 13.8 mph - N/A   Overcast
11:56 AM 71.1 °F - 66.0 °F 84% 29.98 in 10.0 mi SSE 11.5 mph - N/A   Overcast
12:56 PM 71.1 °F - 66.0 °F 84% 29.94 in 10.0 mi SSE 15.0 mph - N/A   Overcast
1:56 PM 71.1 °F - 66.9 °F 87% 29.91 in 4.0 mi South 13.8 mph 23.0 mph N/A   Overcast
2:31 PM 71.6 °F - 68.0 °F 88% 29.85 in 6.0 mi South 13.8 mph - N/A   Overcast
2:56 PM 72.0 °F - 68.0 °F 87% 29.88 in 5.0 mi South 13.8 mph 21.9 mph N/A   Overcast
3:31 PM 71.6 °F - 68.0 °F 88% 29.82 in 4.0 mi South 16.1 mph - N/A   Overcast
3:56 PM 72.0 °F - 69.1 °F 91% 29.86 in 3.0 mi South 17.3 mph 23.0 mph N/A   Overcast
4:56 PM 73.0 °F - 69.1 °F 87% 29.83 in 5.0 mi South 16.1 mph - N/A   Mostly Cloudy
5:10 PM 73.4 °F - 69.8 °F 88% 29.78 in 5.0 mi South 16.1 mph 20.7 mph N/A   Haze
5:20 PM 73.4 °F - 69.8 °F 88% 29.78 in 5.0 mi South 16.1 mph - N/A   Haze
5:56 PM 73.0 °F - 69.1 °F 87% 29.82 in 5.0 mi South 12.7 mph - N/A   Clear
6:56 PM 73.0 °F - 69.1 °F 87% 29.81 in 4.0 mi South 8.1 mph - N/A   Clear
7:56 PM 75.0 °F - 70.0 °F 84% 29.79 in 6.0 mi SSW 9.2 mph - N/A   Haze
8:56 PM 75.9 °F - 71.1 °F 85% 29.79 in 6.0 mi SSW 6.9 mph - N/A   Haze
9:56 PM 78.1 °F - 73.0 °F 84% 29.79 in 7.0 mi SW 6.9 mph - N/A   Clear
10:56 PM 75.9 °F - 72.0 °F 87% 29.79 in 7.0 mi SSW 5.8 mph - N/A   Clear
11:56 PM 82.9 °F 87.5 °F 71.1 °F 67% 29.78 in 10.0 mi WSW 10.4 mph - N/A   Clear